User: anonymous   Login
Location: Caltech
(34.1382°N, 118.1253°W)
Time: 12:15:34
(UTC-07:00)
Language:

Iridium 49 - Orbit

View from above orbital plane
View from above orbital plane
View from above satellite
View from above satellite

Ground track
Ground track

The orbit data is extracted from the following two-line orbital elements,

1 25108U 97082E   18044.38151829  .15890926 -13830-5  16009-3 0  9996
2 25108  86.3590 152.6916 0048274 278.8562  80.6143 16.45745255 55198
Epoch (UTC): 13 February 2018 09:09:23
Eccentricity: 0.0048274
inclination: 86.3590°
perigee height: 119 km
apogee height: 182 km
right ascension of ascending node: 152.6916°
argument of perigee: 278.8562°
revolutions per day: 16.45745255
mean anomaly at epoch: 80.6143°
orbit number at epoch: 5519

The dashed part of the orbit path shows where the satellite is in the earth's shadow,  

DLR